This is the latest recevied weather packets stored in our database for station/object KC5TIL. If no packets are shown the sender has not sent any weather packets the latest 1 day(s).
| Time | Temp. | Humidity | Pressure | Rain* | Wind** | Luminosity | Snow |
|---|---|---|---|---|---|---|---|
| 1777998232 | 28.33° C | 67% | 1005.8 hPa | 0 mm | 2.24 m/s, 208° | 621 W/m² | - |
| 1777997929 | 28.89° C | 67% | 1005.9 hPa | 0 mm | 0.89 m/s, 170° | 776 W/m² | - |
| 1777997626 | 27.78° C | 69% | 1005.8 hPa | 0 mm | 0.89 m/s, 165° | 799 W/m² | - |
| 1777997323 | 27.78° C | 70% | 1006 hPa | 0 mm | 1.34 m/s, 246° | 684 W/m² | - |
| 1777997021 | 27.78° C | 71% | 1006 hPa | 0 mm | 1.34 m/s, 168° | 682 W/m² | - |
| 1777996717 | 27.78° C | 71% | 1005.9 hPa | 0 mm | 0.45 m/s, 171° | 656 W/m² | - |
| 1777996413 | 27.22° C | 71% | 1006.1 hPa | 0 mm | 1.34 m/s, 203° | 511 W/m² | - |
| 1777996110 | 26.67° C | 71% | 1006.1 hPa | 0 mm | 1.34 m/s, 194° | 475 W/m² | - |
| 1777995806 | 26.67° C | 73% | 1006.1 hPa | 0 mm | 0.45 m/s, 139° | 448 W/m² | - |
| 1777995502 | 26.11° C | 74% | 1006 hPa | 0 mm | 1.34 m/s, 176° | 361 W/m² | - |
| 1777992564 | 25° C | 77% | 1006.1 hPa | 0 mm | 0.89 m/s, 224° | 361 W/m² | - |
| 1777992262 | 25° C | 77% | 1006.1 hPa | 0 mm | 0.89 m/s, 224° | 361 W/m² | - |
| 1777991959 | 25° C | 78% | 1006.1 hPa | 0 mm | 0.89 m/s, 199° | 331 W/m² | - |
| 1777991656 | 25° C | 77% | 1006.4 hPa | 0 mm | 0.89 m/s, 133° | 280 W/m² | - |
| 1777991353 | 24.44° C | 79% | 1006.7 hPa | 0 mm | 0.89 m/s, 207° | 360 W/m² | - |
| 1777991050 | 24.44° C | 79% | 1006.7 hPa | 0 mm | 0.45 m/s, 92° | 244 W/m² | - |
| 1777990748 | 24.44° C | 80% | 1006.5 hPa | 0 mm | 0.89 m/s, 150° | 197 W/m² | - |
| 1777990445 | 23.89° C | 80% | 1006.5 hPa | 0 mm | 2.24 m/s, 180° | 192 W/m² | - |
| 1777990141 | 23.89° C | 80% | 1006.3 hPa | 0 mm | 1.34 m/s, 153° | 178 W/m² | - |
| 1777989838 | 23.89° C | 80% | 1006.1 hPa | 0 mm | 1.34 m/s, 154° | 199 W/m² | - |
| 1777989535 | 23.89° C | 81% | 1006.1 hPa | 0 mm | 1.79 m/s, 112° | 198 W/m² | - |
| 1777989231 | 23.89° C | 81% | 1006.1 hPa | 0 mm | 0.45 m/s, 144° | 162 W/m² | - |
| 1777988927 | 23.33° C | 82% | 1006.2 hPa | 0 mm | 0.45 m/s, 195° | 172 W/m² | - |
| 1777988625 | 23.33° C | 82% | 1006.2 hPa | 0 mm | 0.89 m/s, 120° | 144 W/m² | - |
| 1777988321 | 23.33° C | 82% | 1006.2 hPa | 0 mm | 1.34 m/s, 200° | 180 W/m² | - |
* Rain latest hour (hover to see other rain measurements)
** Current wind speed in m/s (hover to see current wind gust speed)